This is the latest recevied weather packets stored in our database for station/object K7KAZ. If no packets are shown the sender has not sent any weather packets the latest 10 day(s).
| Time | Temp. | Humidity | Pressure | Rain* | Wind** | Luminosity | Snow |
|---|---|---|---|---|---|---|---|
| 1777988739 | 17.78° C | 59% | 1014.3 hPa | 0 mm | - | 49 W/m² | - |
| 1777988436 | 17.78° C | 62% | 1014.1 hPa | 0 mm | - | 37 W/m² | - |
| 1777988133 | 17.78° C | 66% | 1014 hPa | 0 mm | - | 28 W/m² | - |
| 1777987829 | 17.78° C | 67% | 1013.9 hPa | 0 mm | - | 32 W/m² | - |
| 1777987526 | 17.78° C | 68% | 1013.8 hPa | 0 mm | - | 43 W/m² | - |
| 1777987224 | 17.22° C | 70% | 1014 hPa | 0 mm | - | 31 W/m² | - |
| 1777986920 | 17.22° C | 70% | 1013.9 hPa | 0 mm | - | 22 W/m² | - |
| 1777986618 | 17.22° C | 70% | 1013.9 hPa | 0 mm | - | 16 W/m² | - |
| 1777986316 | 17.22° C | 69% | 1013.7 hPa | 0 mm | - | 12 W/m² | - |
| 1777986014 | 17.22° C | 71% | 1013.9 hPa | 0 mm | - | 10 W/m² | - |
| 1777985710 | 17.22° C | 70% | 1013.6 hPa | 0 mm | - | 5 W/m² | - |
| 1777985407 | 17.22° C | 70% | 1013.9 hPa | 0 mm | - | 2 W/m² | - |
| 1777985104 | 17.22° C | 69% | 1013.7 hPa | 0 mm | - | 0 W/m² | - |
| 1777984800 | 17.22° C | 69% | 1013.7 hPa | 0 mm | - | 0 W/m² | - |
| 1777984496 | 17.22° C | 68% | 1013.5 hPa | 0 mm | - | 0 W/m² | - |
| 1777984193 | 17.22° C | 68% | 1013.8 hPa | 0 mm | - | 0 W/m² | - |
| 1777983890 | 17.22° C | 68% | 1013.4 hPa | 0 mm | - | 0 W/m² | - |
| 1777983587 | 17.22° C | 69% | 1013.5 hPa | 0 mm | - | 0 W/m² | - |
| 1777983284 | 17.22° C | 69% | 1013.4 hPa | 0 mm | - | 0 W/m² | - |
| 1777982979 | 17.22° C | 69% | 1013.4 hPa | 0 mm | - | 0 W/m² | - |
| 1777982676 | 17.22° C | 69% | 1013.3 hPa | 0 mm | - | 0 W/m² | - |
| 1777982375 | 17.22° C | 70% | 1013.2 hPa | 0 mm | - | 0 W/m² | - |
| 1777982072 | 17.22° C | 70% | 1013.4 hPa | 0 mm | - | 0 W/m² | - |
| 1777981770 | 17.22° C | 70% | 1013 hPa | 0 mm | - | 0 W/m² | - |
| 1777981466 | 17.22° C | 70% | 1013.2 hPa | 0 mm | - | 0 W/m² | - |
* Rain latest hour (hover to see other rain measurements)
** Current wind speed in m/s (hover to see current wind gust speed)